星链-34532 (STARLINK-34532)

导读

STARLINK-34532是美国SpaceX公司星链(Starlink)项目的第二代低轨互联网卫星,于2025年6月25日由美国发射升空,目前在轨运行。作为星链全球卫星互联网星座的组成部分,该卫星运行在近地轨道,通过与地面站和用户终端配合,能够为全球尤其是偏远地区提供低延迟、高速宽带互联网服务,助力星链实现全球覆盖,推动全球互联网络建设,截至2025年底,星链星座已包含超7800颗卫星,服务超600万用户。

Basic Information
目录编号:
64607
目录名称:
STARLINK-34532
国际标识:
2025-137P
轨道中心:
EARTH
卫星名称:
星链-34532
卫星全名:
星链-34532 (STARLINK-34532)
卫星状态:
在轨 (已飞行446 天)
发射日期:
2025-06-25 UTC
国别 :
美国 (US)
星等 :
--
This satellite is enrolled in the Space Conjunction Data Service (SCDS) and the current flight risk assessment level is: No High Risk
Orbit Information
数据来源 国际轨道数据
星历时间: 2026-09-13T13:07:36+0800
23小时前
查看轨道信息
半长轴: 6840.853km
偏心率: 0.0001406
轨道倾角: 53.159°
近地点辐角 82.523°
升交点赤经 191.453°
平近点角 277.593°
近地点: 461.754km
远地点: 463.678km
周期: 93.848分钟
每日圈数: 15.343958
Detailed Information
固有亮度:
5
最大亮度:
2.5
卫星平台:
Starlink V1.0
覆盖范围:
全球
运营商:
太空探索技术公司
运营商所在国:
美国
制造商(研发单位):
太空探索技术公司
制造商所在国:
美国
使用方式:
暂无
Satellite Introduction
Starlink 计划是 SpaceX 推出的全球卫星互联网项目,通过发射低轨道卫星,为全球尤其是偏远地区提供高速、低延迟的互联网服务。自 2019 年起,Starlink 已部署数千颗卫星,旨在缩小全球数字鸿沟,推动互联网普及。该项目还为军事、航空等行业提供通信支持,带来广泛经济效益。
2D Orbit Map
3D Orbit Map
Orbit Altitude Analysis Chart
Orbit Inclination Analysis Chart
Orbit Comprehensive Analysis Chart
View Comprehensive Chart
Conjunction Data List
Event ID Objects TCA Miss Dist (km) Collision Risk Probability Collision Risk Index (CRI) Action
CDM_260914-092104-578606-460722
2026-09-14T
09:21:27+0000
2.818 km
极远距离
1.280483E-6 低风险 0.37
CDM_260911-020405-248406-460722
2026-09-11T
02:04:30+0000
2.772 km
极远距离
1.123204E-6 低风险 0.36
CDM_260909-153005-113206-460721
2026-09-09T
15:30:37+0000
2.325 km
极远距离
6.710486E-7 极低风险 0.32
Miss Distance Evolution Trend with All Objects Subscribe to Flight Safety Assessment
Collision Probability Evolution Trend with All Objects Subscribe to Flight Safety Assessment